CDT,Max TemperatureF,Mean TemperatureF,Min TemperatureF,Max Dew PointF,MeanDew PointF,Min DewpointF,Max Humidity, Mean Humidity, Min Humidity, Max Sea Level PressureIn, Mean Sea Level PressureIn, Min Sea Level PressureIn, Max VisibilityMiles, Mean VisibilityMiles, Min VisibilityMiles, Max Wind SpeedMPH, Mean Wind SpeedMPH, Max Gust SpeedMPH,PrecipitationIn, CloudCover, Events, WindDirDegrees
2013-10-1,90,74,59,62,57,52,84,57,31,29.93,29.87,29.83,10,10,0,22,11,26,0.00,0,,134
2013-10-2,89,78,67,68,63,58,85,63,42,29.96,29.90,29.83,10,10,10,21,12,28,0.00,1,,149
2013-10-3,92,80,69,69,65,60,92,63,34,29.88,29.81,29.72,10,9,2,25,15,32,0.00,1,,161
2013-10-4,91,78,65,66,63,50,81,55,37,29.95,29.80,29.72,10,10,7,31,17,41,0.15,0,Rain-Thunderstorm,168
2013-10-5,69,60,50,49,37,31,74,44,25,30.19,30.11,29.96,10,10,10,30,19,39,0.00,3,Thunderstorm,359
2013-10-6,78,60,43,42,35,30,80,45,17,30.21,30.14,30.08,10,10,4,23,7,31,0.00,0,,343
2013-10-7,80,64,47,48,42,37,84,50,21,30.21,30.15,30.09,10,9,1,9,4,,0.00,0,,43
2013-10-8,85,67,50,43,40,36,67,41,18,30.11,30.03,29.94,10,10,10,17,10,22,0.00,0,,136
2013-10-9,83,68,52,47,45,42,79,47,24,30.04,29.98,29.93,10,10,10,24,12,30,0.00,0,,146
2013-10-10,85,71,57,58,56,52,81,55,34,30.01,29.92,29.81,10,10,10,26,15,33,0.00,0,,146
2013-10-11,89,76,62,59,44,29,85,43,12,29.88,29.83,29.78,10,10,7,25,11,37,0.00,0,,198
2013-10-12,77,65,53,48,44,38,63,46,33,30.18,30.05,29.88,10,10,4,23,10,30,0.00,0,,35
2013-10-13,74,65,56,65,57,47,88,71,58,30.30,30.20,30.15,10,10,7,22,10,28,0.00,5,Thunderstorm,81
2013-10-14,78,72,67,68,66,64,93,82,68,30.15,29.99,29.86,10,8,2,15,11,18,0.02,6,Rain-Thunderstorm,154
2013-10-15,69,61,52,66,44,36,93,59,40,30.17,30.08,29.91,10,10,2,29,14,38,0.00,3,,19
2013-10-16,55,49,42,40,37,34,81,58,45,30.23,30.17,30.12,10,10,7,14,10,18,0.00,2,Rain,17
2013-10-17,73,55,37,44,38,33,86,57,25,30.12,30.06,29.96,10,10,10,9,4,,0.00,1,,171
2013-10-18,58,48,38,54,45,35,94,80,57,30.25,30.05,29.95,10,8,1,29,10,39,0.12,6,Rain-Thunderstorm,65
2013-10-19,68,50,32,41,33,28,94,63,22,30.25,30.16,30.05,10,10,10,14,5,20,0.00,0,,252
2013-10-20,75,58,41,51,42,36,84,60,33,30.05,29.91,29.79,10,10,10,18,8,22,0.00,0,,145
2013-10-21,65,56,46,49,40,32,79,54,29,30.18,30.06,29.87,10,10,1,29,14,34,0.00,1,,33
2013-10-22,82,60,39,40,36,33,82,50,17,30.18,30.13,30.04,10,10,2,14,5,23,0.00,0,,300
2013-10-23,86,64,42,44,36,28,83,43,12,30.14,30.08,30.00,10,10,3,22,6,30,0.00,0,,249
2013-10-24,66,58,49,47,40,36,77,53,34,30.36,30.26,30.10,10,10,10,22,9,30,0.00,0,,51
2013-10-25,68,54,41,48,40,33,74,59,42,30.44,30.33,30.20,10,10,10,16,9,20,0.00,0,,117
2013-10-26,76,64,53,60,51,43,91,70,35,30.21,30.15,30.06,10,9,1,24,9,30,0.04,3,Rain-Thunderstorm,104
2013-10-27,72,56,40,50,37,23,81,53,18,30.19,30.10,29.98,10,10,4,13,7,17,0.00,0,,240
2013-10-28,71,62,52,63,58,50,95,87,75,30.06,30.00,29.93,10,6,0,24,11,31,0.00,5,Fog,135
2013-10-29,83,75,67,66,64,62,88,71,48,30.01,29.96,29.91,10,10,7,24,16,25,0.00,3,,163
2013-10-30,82,76,65,66,64,46,88,73,28,29.97,29.85,29.74,10,10,4,30,13,43,0.06,4,Rain-Thunderstorm,174
2013-10-31,70,60,51,61,44,34,85,56,26,29.87,29.79,29.67,10,10,4,31,13,39,0.09,0,Rain-Thunderstorm,266